Location: Spondin
(51.8528°N, 111.6118°W)
Time: 17:37:10
(UTC+00:00)

Vanguard 2 Rocket - Pass Details

Date: 30 May 2022
Orbit: 553 x 3323 km, 32.9° (Epoch: 02 July)

Event Time Altitude Azimuth Distance (km) Brightness Sun altitude
Rises 23:06:53 0° 261° (W) 7,253 12.4 38.0°
Reaches altitude 10° 23:12:46 10° 253° (WSW) 6,052 12.4 37.1°
Maximum altitude 23:27:18 32° 201° (SSW) 3,644 10.7 34.9°
Drops below altitude 10° 23:37:22 10° 144° (SE) 4,161 10.1 33.4°
Sets 23:40:33 0° 134° (SE) 4,792 10.3 32.9°
